This is the latest recevied weather packets stored in our database for station/object YD2CLX-13. If no packets are shown the sender has not sent any weather packets the latest 10 day(s).
| Time | Temp. | Humidity | Pressure | Rain* | Wind** | Luminosity | Snow |
|---|---|---|---|---|---|---|---|
| 1777768154 | 11.67° C | 70% | 797.6 hPa | 0 mm | - | - | - |
| 1777766331 | 15° C | 70% | 797.3 hPa | 0 mm | - | - | - |
| 1777765722 | 9.44° C | 70% | 797 hPa | 0 mm | - | - | - |
| 1777765112 | 8.89° C | 70% | 797.1 hPa | 0 mm | - | - | - |
| 1777764504 | 7.78° C | 70% | 796.8 hPa | 0 mm | - | - | - |
| 1777763890 | 7.78° C | 70% | 797 hPa | 0 mm | - | - | - |
| 1777763276 | 7.22° C | 70% | 796.7 hPa | 0 mm | - | - | - |
| 1777762661 | 7.78° C | 70% | 796.7 hPa | 0 mm | - | - | - |
| 1777762048 | 7.22° C | 69% | 796.7 hPa | 0 mm | - | - | - |
| 1777760816 | 7.22° C | 70% | 796.5 hPa | 0 mm | - | - | - |
| 1777760204 | 7.78° C | 69% | 796.4 hPa | 0 mm | - | - | - |
| 1777759586 | 7.22° C | 70% | 796.3 hPa | 0 mm | - | - | - |
| 1777758971 | 7.22° C | 69% | 796.4 hPa | 0 mm | - | - | - |
| 1777758356 | 7.22° C | 69% | 796.3 hPa | 0 mm | - | - | - |
| 1777757740 | 7.22° C | 69% | 796.4 hPa | 0 mm | - | - | - |
| 1777756509 | 7.78° C | 69% | 796.3 hPa | 0 mm | - | - | - |
| 1777755894 | 7.78° C | 69% | 796.3 hPa | 0 mm | - | - | - |
| 1777755280 | 7.78° C | 70% | 796.2 hPa | 0 mm | - | - | - |
| 1777754664 | 7.78° C | 69% | 796.2 hPa | 0 mm | - | - | - |
| 1777754049 | 7.78° C | 69% | 796.3 hPa | 0 mm | - | - | - |
| 1777753434 | 8.33° C | 70% | 796.3 hPa | 0 mm | - | - | - |
| 1777752818 | 8.33° C | 70% | 796.4 hPa | 0 mm | - | - | - |
| 1777751589 | 8.89° C | 70% | 796.6 hPa | 0 mm | - | - | - |
| 1777750357 | 9.44° C | 70% | 796.6 hPa | 0 mm | - | - | - |
| 1777749744 | 8.89° C | 70% | 796.6 hPa | 0 mm | - | - | - |
* Rain latest hour (hover to see other rain measurements)
** Current wind speed in m/s (hover to see current wind gust speed)